{"data":{"norad_id":63493,"epoch":"2026-05-25T03:44:28.037184Z","epoch_age_seconds":68532,"freshness":"FRESH","line1":"1 63493U 25071A   26145.15588006  .00013129  00000+0  31056-3 0  9994","line2":"2 63493  53.1579 144.3039 0000777  50.5032 309.6042 15.42167120 64460","mean_motion":15.4216712,"eccentricity":7.77e-5,"inclination_deg":53.1579,"raan_deg":144.3039,"arg_perigee_deg":50.5032,"mean_anomaly_deg":309.6042,"bstar":0.00031056,"rev_number":6446,"period_min":93.375094133767,"perigee_km":439.1849217411,"apogee_km":440.24441589043,"semimajor_km":6817.8516688158,"source":"CELESTRAK","updated_at":"2026-05-25T13:38:20.011197Z"}}